ABL8102 RKPC-RKPK

Flight info

Callsign ABL8102
Flight time N/A
Altitude 21000
Route AKPON1W AKPON Y571 ANROD KEVOX3
Aircraft A21N/M-SDE3FGHIRWY/LB1

Departure

Time 2025-09-07 05:48
Airport Jeju International Airport (RKPC)

Arrival

Time N/A
Airport Gimhae International Airport (RKPK)
Time Latitude Longitude Altitude Speed Heading
2025-09-07 05:38 33.50791 126.49487 126 ft 0 kts 179°
2025-09-07 05:42 33.50934 126.49472 126 ft 2 kts 121°
2025-09-07 05:43 33.50937 126.49425 126 ft 1 kts 90°
2025-09-07 05:44 33.50933 126.49405 126 ft 1 kts 56°
2025-09-07 05:44 33.50932 126.49403 126 ft 0 kts 58°
2025-09-07 05:45 33.50975 126.49487 126 ft 5 kts 58°
2025-09-07 05:46 33.51424 126.49649 126 ft 0 kts 240°
2025-09-07 05:46 33.51173 126.49152 126 ft 100 kts 238°
2025-09-07 05:47 33.49524 126.45917 1424 ft 155 kts 240°
2025-09-07 05:48 33.48432 126.43797 2564 ft 150 kts 240°
2025-09-07 05:48 33.47262 126.41522 3234 ft 175 kts 240°
2025-09-07 05:48 33.46592 126.40216 3543 ft 191 kts 240°
2025-09-07 05:49 33.45072 126.37270 4141 ft 227 kts 239°
2025-09-07 05:49 33.43005 126.34000 4880 ft 268 kts 212°
2025-09-07 05:50 33.39283 126.33548 6408 ft 280 kts 173°
2025-09-07 05:50 33.35381 126.34322 7926 ft 287 kts 173°
2025-09-07 05:51 33.30279 126.37777 10049 ft 309 kts 115°
2025-09-07 05:52 33.30075 126.43008 10892 ft 338 kts 81°
2025-09-07 05:52 33.30889 126.48816 11448 ft 372 kts 82°
2025-09-07 05:52 33.31276 126.51958 11809 ft 385 kts 82°
2025-09-07 05:53 33.32223 126.58303 13024 ft 393 kts 72°
2025-09-07 05:53 33.34735 126.64117 14178 ft 400 kts 56°
2025-09-07 05:54 33.37948 126.69799 15307 ft 406 kts 56°
2025-09-07 05:55 33.42650 126.78316 16888 ft 415 kts 56°
2025-09-07 05:55 33.44243 126.81223 17378 ft 418 kts 56°
2025-09-07 05:55 33.47453 126.87083 18296 ft 425 kts 56°
2025-09-07 05:56 33.50711 126.93027 19193 ft 431 kts 56°
2025-09-07 05:56 33.54021 126.99083 20056 ft 436 kts 56°
2025-09-07 05:57 33.57424 127.05153 20776 ft 441 kts 53°
2025-09-07 05:58 33.63360 127.13522 20864 ft 439 kts 46°
2025-09-07 05:58 33.65417 127.16246 20869 ft 439 kts 47°
2025-09-07 05:58 33.69477 127.21657 20871 ft 439 kts 47°
2025-09-07 05:59 33.75602 127.29872 20861 ft 439 kts 47°
2025-09-07 06:00 33.79662 127.35338 20856 ft 440 kts 47°
2025-09-07 06:00 33.83738 127.40836 20852 ft 440 kts 47°
2025-09-07 06:01 33.87794 127.46314 20854 ft 440 kts 47°
2025-09-07 06:01 33.91859 127.51812 20856 ft 440 kts 47°
2025-09-07 06:01 33.93901 127.54575 20855 ft 441 kts 47°
2025-09-07 06:02 34.00032 127.62885 20857 ft 442 kts 47°
2025-09-07 06:02 34.02077 127.65665 20856 ft 442 kts 47°
2025-09-07 06:03 34.08189 127.74013 20853 ft 443 kts 47°
2025-09-07 06:04 34.12273 127.79569 20852 ft 443 kts 47°
2025-09-07 06:04 34.16398 127.85165 20866 ft 442 kts 47°
2025-09-07 06:04 34.18422 127.87924 20862 ft 444 kts 47°
2025-09-07 06:05 34.22515 127.93517 20844 ft 444 kts 47°
2025-09-07 06:06 34.28639 128.01918 20850 ft 442 kts 48°
2025-09-07 06:06 34.30661 128.04695 20845 ft 443 kts 47°
2025-09-07 06:06 34.34732 128.10297 20855 ft 442 kts 48°
2025-09-07 06:07 34.42850 128.21481 20856 ft 442 kts 47°
2025-09-07 06:08 34.44863 128.24263 20851 ft 442 kts 47°
2025-09-07 06:08 34.48900 128.29842 20845 ft 441 kts 47°
2025-09-07 06:09 34.52921 128.35410 20121 ft 442 kts 47°
2025-09-07 06:09 34.57007 128.41074 18620 ft 446 kts 47°
2025-09-07 06:09 34.59028 128.43881 18076 ft 441 kts 47°
2025-09-07 06:10 34.63375 128.48967 16921 ft 431 kts 26°
2025-09-07 06:10 34.69041 128.50359 15873 ft 414 kts 359°